Hourly Weather Barrancabermeja

Today, 22 October, Thursday

Time Temperature Precipitation Wind Pressure Humidity
00:00 +24°C° 0.5 mm 0 mps 752 mmHg 96%
01:00 +24°C° 0.5 mm 0 mps 752 mmHg 97%
02:00 +23°C° 1.1 mm 0 mps 752 mmHg 97%
03:00 +23°C° 1.1 mm 0 mps 752 mmHg 98%
04:00 +23°C° 1.1 mm 0 mps 752 mmHg 98%
05:00 +23°C° 0.8 mm 0 mps 752 mmHg 98%
06:00 +23°C° 0.8 mm 0 mps 753 mmHg 98%
07:00 +24°C° 0.8 mm 0 mps 754 mmHg 97%
08:00 +25°C° 0.3 mm 0 mps 753 mmHg 91%
09:00 +28°C° 0.3 mm 1 mps 753 mmHg 85%
10:00 +30°C° 0.3 mm 1 mps 753 mmHg 79%
11:00 +31°C° 0.2 mm 1 mps 752 mmHg 72%
12:00 +33°C° 0.2 mm 1 mps 751 mmHg 66%
13:00 +32°C° 0.2 mm 0 mps 750 mmHg 59%
14:00 +34°C° 0 mm 1 mps 750 mmHg 60%
15:00 +33°C° 0 mm 1 mps 749 mmHg 61%
16:00 +33°C° 0 mm 1 mps 749 mmHg 62%
17:00 +31°C° 0.1 mm 1 mps 750 mmHg 70%
18:00 +30°C° 0.1 mm 1 mps 750 mmHg 77%
19:00 +28°C° 0.1 mm 1 mps 751 mmHg 85%
20:00 +25°C° 0.4 mm 0 mps 752 mmHg 88%
21:00 +25°C° 0.4 mm 0 mps 753 mmHg 91%
22:00 +24°C° 0.4 mm 0 mps 753 mmHg 94%
23:00 +24°C° 0.3 mm 0 mps 753 mmHg 94%

Tomorrow, 23 October, Friday

Time Temperature Precipitation Wind Pressure Humidity
00:00 +24°C° 0.3 mm 0 mps 753 mmHg 95%
01:00 +23°C° 0.3 mm 0 mps 752 mmHg 95%
02:00 +23°C° 0.2 mm 0 mps 752 mmHg 96%
03:00 +23°C° 0.2 mm 0 mps 752 mmHg 96%
04:00 +23°C° 0.2 mm 0 mps 752 mmHg 97%
05:00 +23°C° 0.2 mm 0 mps 752 mmHg 96%
06:00 +24°C° 0.2 mm 0 mps 753 mmHg 95%
07:00 +24°C° 0.2 mm 0 mps 753 mmHg 94%
08:00 +26°C° 0 mm 0 mps 753 mmHg 86%
09:00 +30°C° 0 mm 1 mps 753 mmHg 77%
10:00 +32°C° 0 mm 1 mps 753 mmHg 68%
11:00 +33°C° 0 mm 1 mps 752 mmHg 63%
12:00 +35°C° 0 mm 1 mps 750 mmHg 57%
13:00 +36°C° 0 mm 1 mps 749 mmHg 52%
14:00 +33°C° 0 mm 0 mps 749 mmHg 53%
15:00 +33°C° 0 mm 0 mps 749 mmHg 54%
16:00 +33°C° 0 mm 0 mps 748 mmHg 55%
17:00 +31°C° 0.3 mm 0 mps 749 mmHg 65%
18:00 +30°C° 0.3 mm 1 mps 750 mmHg 75%
19:00 +28°C° 0.3 mm 1 mps 750 mmHg 85%
20:00 +27°C° 1.8 mm 1 mps 751 mmHg 89%
21:00 +26°C° 1.8 mm 1 mps 752 mmHg 92%
22:00 +23°C° 1.8 mm 0 mps 753 mmHg 96%
23:00 +23°C° 0.8 mm 0 mps 752 mmHg 96%

Day after tomorrow, 24 October, Saturday

Time Temperature Precipitation Wind Pressure Humidity
00:00 +23°C° 0.8 mm 0 mps 752 mmHg 97%
01:00 +23°C° 0.8 mm 0 mps 752 mmHg 97%
02:00 +23°C° 0.5 mm 0 mps 752 mmHg 97%
03:00 +23°C° 0.5 mm 0 mps 752 mmHg 98%
04:00 +23°C° 0.5 mm 0 mps 752 mmHg 98%
05:00 +23°C° 0.2 mm 0 mps 752 mmHg 97%
06:00 +23°C° 0.2 mm 0 mps 753 mmHg 96%
07:00 +23°C° 0.2 mm 0 mps 753 mmHg 96%
08:00 +26°C° 0 mm 0 mps 753 mmHg 85%
09:00 +28°C° 0 mm 0 mps 753 mmHg 74%
10:00 +30°C° 0 mm 0 mps 753 mmHg 63%
11:00 +31°C° 0 mm 0 mps 751 mmHg 59%
12:00 +33°C° 0 mm 0 mps 750 mmHg 54%
13:00 +34°C° 0 mm 0 mps 749 mmHg 50%
14:00 +33°C° 0 mm 0 mps 749 mmHg 52%
15:00 +35°C° 0 mm 1 mps 749 mmHg 55%
16:00 +34°C° 0 mm 1 mps 749 mmHg 58%
17:00 +32°C° 0.8 mm 1 mps 749 mmHg 70%
18:00 +29°C° 0.8 mm 1 mps 750 mmHg 82%
19:00 +27°C° 0.8 mm 1 mps 751 mmHg 94%
20:00 +27°C° 3.1 mm 1 mps 751 mmHg 95%
21:00 +26°C° 3.1 mm 1 mps 752 mmHg 96%
22:00 +26°C° 3.1 mm 1 mps 752 mmHg 98%
23:00 +26°C° 3.8 mm 1 mps 752 mmHg 98%

, 25 October, Sunday

Time Temperature Precipitation Wind Pressure Humidity
00:00 +25°C° 3.8 mm 1 mps 752 mmHg 98%
01:00 +25°C° 3.8 mm 1 mps 752 mmHg 98%
02:00 +25°C° 2.2 mm 1 mps 752 mmHg 98%
03:00 +25°C° 2.2 mm 1 mps 752 mmHg 98%
04:00 +23°C° 2.2 mm 0 mps 752 mmHg 98%
05:00 +23°C° 2.5 mm 0 mps 752 mmHg 99%
06:00 +25°C° 2.5 mm 1 mps 753 mmHg 99%
07:00 +25°C° 2.5 mm 1 mps 754 mmHg 99%
08:00 +23°C° 4.3 mm 0 mps 754 mmHg 99%
09:00 +23°C° 4.3 mm 0 mps 754 mmHg 99%
10:00 +23°C° 4.3 mm 0 mps 754 mmHg 99%
11:00 +23°C° 0.2 mm 0 mps 753 mmHg 96%
12:00 +24°C° 0.2 mm 0 mps 753 mmHg 93%
13:00 +25°C° 0.2 mm 0 mps 752 mmHg 91%
14:00 +26°C° 0 mm 0 mps 751 mmHg 84%
15:00 +27°C° 0 mm 0 mps 751 mmHg 78%
16:00 +28°C° 0 mm 0 mps 751 mmHg 71%
17:00 +26°C° 0 mm 0 mps 751 mmHg 77%
18:00 +25°C° 0 mm 0 mps 752 mmHg 84%
19:00 +24°C° 0 mm 0 mps 752 mmHg 90%
20:00 +23°C° 0 mm 0 mps 752 mmHg 91%
21:00 +23°C° 0 mm 0 mps 753 mmHg 92%
22:00 +23°C° 0 mm 0 mps 753 mmHg 94%
23:00 +22°C° 0 mm 0 mps 753 mmHg 95%

25 October, Sunday

Time Temperature Precipitation Wind Pressure Humidity
00:00 +25°C° 3.8 mm 1 mps 752 mmHg 98%
01:00 +25°C° 3.8 mm 1 mps 752 mmHg 98%
02:00 +25°C° 2.2 mm 1 mps 752 mmHg 98%
03:00 +25°C° 2.2 mm 1 mps 752 mmHg 98%
04:00 +23°C° 2.2 mm 0 mps 752 mmHg 98%
05:00 +23°C° 2.5 mm 0 mps 752 mmHg 99%
06:00 +25°C° 2.5 mm 1 mps 753 mmHg 99%
07:00 +25°C° 2.5 mm 1 mps 754 mmHg 99%
08:00 +23°C° 4.3 mm 0 mps 754 mmHg 99%
09:00 +23°C° 4.3 mm 0 mps 754 mmHg 99%
10:00 +23°C° 4.3 mm 0 mps 754 mmHg 99%
11:00 +23°C° 0.2 mm 0 mps 753 mmHg 96%
12:00 +24°C° 0.2 mm 0 mps 753 mmHg 93%
13:00 +25°C° 0.2 mm 0 mps 752 mmHg 91%
14:00 +26°C° 0 mm 0 mps 751 mmHg 84%
15:00 +27°C° 0 mm 0 mps 751 mmHg 78%
16:00 +28°C° 0 mm 0 mps 751 mmHg 71%
17:00 +26°C° 0 mm 0 mps 751 mmHg 77%
18:00 +25°C° 0 mm 0 mps 752 mmHg 84%
19:00 +24°C° 0 mm 0 mps 752 mmHg 90%
20:00 +23°C° 0 mm 0 mps 752 mmHg 91%
21:00 +23°C° 0 mm 0 mps 753 mmHg 92%
22:00 +23°C° 0 mm 0 mps 753 mmHg 94%
23:00 +22°C° 0 mm 0 mps 753 mmHg 95%

26 October, Monday

Time Temperature Precipitation Wind Pressure Humidity
00:00 +22°C° 0 mm 0 mps 753 mmHg 96%
01:00 +22°C° 0 mm 0 mps 752 mmHg 97%
02:00 +22°C° 0 mm 0 mps 752 mmHg 97%
03:00 +22°C° 0 mm 0 mps 752 mmHg 97%
04:00 +21°C° 0 mm 0 mps 752 mmHg 97%
05:00 +22°C° 0 mm 0 mps 753 mmHg 95%
06:00 +23°C° 0 mm 0 mps 753 mmHg 92%
07:00 +23°C° 0 mm 0 mps 753 mmHg 89%
08:00 +26°C° 0 mm 0 mps 753 mmHg 79%
09:00 +28°C° 0 mm 0 mps 753 mmHg 70%
10:00 +33°C° 0 mm 1 mps 753 mmHg 60%
11:00 +32°C° 0 mm 0 mps 752 mmHg 56%
12:00 +33°C° 0 mm 0 mps 751 mmHg 52%
13:00 +34°C° 0 mm 0 mps 750 mmHg 47%
14:00 +34°C° 0 mm 0 mps 749 mmHg 51%
15:00 +35°C° 0 mm 1 mps 749 mmHg 55%
16:00 +34°C° 0 mm 1 mps 749 mmHg 58%
17:00 +32°C° 0.2 mm 1 mps 749 mmHg 68%
18:00 +30°C° 0.2 mm 1 mps 750 mmHg 77%
19:00 +27°C° 0.2 mm 1 mps 751 mmHg 87%
20:00 +25°C° 0.8 mm 0 mps 751 mmHg 88%
21:00 +25°C° 0.8 mm 0 mps 751 mmHg 90%
22:00 +24°C° 0.8 mm 0 mps 752 mmHg 91%
23:00 +24°C° 0.7 mm 0 mps 751 mmHg 93%

27 October, Tuesday

Time Temperature Precipitation Wind Pressure Humidity
00:00 +24°C° 0.7 mm 0 mps 751 mmHg 94%
01:00 +23°C° 0.7 mm 0 mps 751 mmHg 95%
02:00 +23°C° 1.6 mm 0 mps 751 mmHg 96%
03:00 +23°C° 1.6 mm 0 mps 751 mmHg 97%
04:00 +23°C° 1.6 mm 0 mps 751 mmHg 98%
05:00 +23°C° 1.4 mm 0 mps 751 mmHg 98%
06:00 +23°C° 1.4 mm 0 mps 752 mmHg 98%
07:00 +23°C° 1.4 mm 0 mps 752 mmHg 98%
08:00 +24°C° 0.2 mm 0 mps 752 mmHg 94%
09:00 +25°C° 0.2 mm 0 mps 752 mmHg 90%
10:00 +26°C° 0.2 mm 0 mps 752 mmHg 86%
11:00 +28°C° 0.2 mm 0 mps 751 mmHg 76%
12:00 +31°C° 0.2 mm 0 mps 750 mmHg 66%
13:00 +33°C° 0.2 mm 0 mps 749 mmHg 56%
14:00 +32°C° 0 mm 0 mps 749 mmHg 57%
15:00 +32°C° 0 mm 0 mps 748 mmHg 58%
16:00 +32°C° 0 mm 0 mps 748 mmHg 59%
17:00 +30°C° 0.3 mm 0 mps 748 mmHg 68%
18:00 +27°C° 0.3 mm 0 mps 749 mmHg 78%
19:00 +25°C° 0.3 mm 0 mps 750 mmHg 87%
20:00 +25°C° 1.8 mm 0 mps 750 mmHg 91%
21:00 +24°C° 1.8 mm 0 mps 750 mmHg 94%
22:00 +23°C° 1.8 mm 0 mps 751 mmHg 97%
23:00 +23°C° 2.2 mm 0 mps 751 mmHg 98%
Show more